Meteo Giornale » Osservazioni meteo Repubblica Ceca » Praha-Ruzyne

ore: 09:30 - Osservazioni Meteo Praha-Ruzyne
Lat. 50° 6' N Lon. 14° 15' E Alt. 365 metri s.l.m.

poco_nuvoloso Europe/Prague

1 °C

Poco Nuvoloso

Temp. 24 Ore

-2 °C

6 °C

Ovest/Sud-Ovest

13 Km/h

Dew point -3 °C

Umidità 74 %

Visibilità  10 Km

Il sole sorge alle ore 06:51

Il sole tramonta alle ore 17:40

Data e Ora Cielo e Fenomeni T °C DP °C Um. % Pres. hPa Vis. km Vento km/h
Oggi h: 09:30 poco_nuvoloso Poco Nuvoloso 1 -3 74 1022 10 O/SO 13
Oggi h: 09:00 poco_nuvoloso Poco Nuvoloso 0 -4 74 1021 10 O 16.7
Oggi h: 08:00 poco_nuvoloso Poco Nuvoloso -1 -4 80 1021 10 O/SO 16.7
Oggi h: 07:30 poco_nuvoloso Poco Nuvoloso -2 -4 86 1020 10 O/SO 16.7
Oggi h: 07:00 poco_nuvoloso Poco Nuvoloso -2 -4 86 1020 10 O/SO 16.7
Oggi h: 06:30 poco_nuvoloso Poco Nuvoloso -2 -4 86 1020 10 O/SO 18.5
Oggi h: 06:00 poco_nuvoloso Poco Nuvoloso -2 -4 86 1019 10 SO 14.8
Oggi h: 05:30 nuvoloso Nuvoloso -1 -4 80 1019 10 O/SO 16.7
Oggi h: 05:00 poco_nuvoloso Poco Nuvoloso -1 -4 80 1019 10 O/SO 16.7
Oggi h: 04:30 nuvoloso Nuvoloso -1 -4 80 1018 10 O/SO 14.8
Oggi h: 04:00 sereno Sereno -1 -4 80 1018 10 O 14.8
Oggi h: 03:30 sereno Sereno -1 -4 80 1018 10 O/SO 16.7
Oggi h: 03:00 sereno Sereno -1 -4 80 1018 10 O/SO 18.5
Oggi h: 02:30 sereno Sereno -1 -4 80 1018 10 O 20.3
Oggi h: 02:00 sereno Sereno -0 -4 74 1017 10 O 22.2
Oggi h: 01:30 sereno Sereno -1 -4 80 1017 10 O/SO 20.3
Oggi h: 01:00 sereno Sereno -1 -4 80 1017 10 SO 18.5
Oggi h: 00:30 sereno Sereno -1 -4 80 1017 10 O/SO 18.5
Oggi h: 00:00 sereno Sereno -1 -3 86 1016 10 SO 16.7
Ieri h: 23:30 sereno Sereno -1 -3 86 1016 10 SO 16.7
Ieri h: 23:00 sereno Sereno -1 -3 86 1016 10 SO 16.7
Ieri h: 22:30 sereno Sereno -1 -3 86 1016 10 O/SO 16.7
Ieri h: 22:00 sereno Sereno -1 -3 86 1016 10 O/SO 14.8
Ieri h: 21:30 sereno Sereno -1 -3 86 1016 10 O 13
Ieri h: 21:00 sereno Sereno -0 -4 74 1015 10 O 11.1
Ieri h: 20:30 sereno Sereno 0 -4 74 1015 10 O 18.5
Ieri h: 20:00 sereno Sereno 0 -4 74 1014 10 O 18.5
Ieri h: 19:30 sereno Sereno 1 -3 74 1014 10 O 20.3
Ieri h: 19:00 sereno Sereno 1 -3 74 1013 10 O 20.3
Ieri h: 18:30 nuvoloso Nuvoloso 1 -2 80 1013 10 O/NO 20.3
Ieri h: 18:05 coperto_pioggia Debole Rovescio di Grandine Piccola o Gragnola 2 -3 69 1012 7 NO 24
Ieri h: 18:00 molto_nuvoloso Rovescio nelle Vicinanze 2 -3 69 1012 10 O/NO 22.2
Ieri h: 17:30 nuvoloso_neve Debole Rovescio di Neve 2 -3 69 1011 10 O 31.5
Ieri h: 17:24 nuvoloso_neve Debole Rovescio di Neve 3 -3 64 1011 10 O 31.5
Ieri h: 17:00 poco_nuvoloso Rovescio nelle Vicinanze 4 -4 55 1010 10 O/NO 27.8
Ieri h: 16:30 poco_nuvoloso Poco Nuvoloso 5 -5 48 1009 10 O/NO 31.5
Ieri h: 16:00 poco_nuvoloso Poco Nuvoloso 5 -5 48 1009 10 O 29.6
Ieri h: 15:30 nuvoloso Nuvoloso 6 -5 45 1008 10 O/NO 31.5
Ieri h: 15:00 poco_nuvoloso Poco Nuvoloso 6 -5 45 1008 10 O 29.6
Ieri h: 14:30 poco_nuvoloso Poco Nuvoloso 6 -6 41 1007 10 O/NO 33.3
Ieri h: 14:00 poco_nuvoloso Poco Nuvoloso 6 -6 41 1007 10 O/NO 31.5
Ieri h: 13:35 poco_nuvoloso Poco Nuvoloso 6 -6 41 1007 10 O 38.8
Ieri h: 13:30 poco_nuvoloso Poco Nuvoloso 6 -5 45 1007 10 O 40.7
Ieri h: 13:00 nuvoloso Nuvoloso 6 -6 41 1007 10 O 37
Ieri h: 12:30 nuvoloso Nuvoloso 5 -5 48 1007 10 O 40.7
Ieri h: 12:00 nuvoloso Nuvoloso 5 -3 56 1006 10 O/NO 24
Ieri h: 11:30 nuvoloso Nuvoloso 4 -1 69 1006 10 O/NO 35.2
Ieri h: 11:04 nuvoloso_piovaschi Debole Rovescio di Pioggia 6 -3 52 1005 10 O 40.7
Ieri h: 11:00 molto_nuvoloso Rovescio nelle Vicinanze 6 -3 52 1004 10 O 40.7
Ieri h: 10:30 molto_nuvoloso Molto Nuvoloso 6 -4 48 1004 10 O 40.7
Ieri h: 10:00 nuvoloso Nuvoloso 5 -3 56 1004 10 O 51.8
Ieri h: 09:30 poco_nuvoloso Poco Nuvoloso 5 -3 56 1003 10 O 40.7
Ieri h: 09:00 nuvoloso Nuvoloso 4 -1 69 1002 10 O 38.8